Location: Asheville, NC
(35.6000°N, 82.5500°W)
Time: 17:08:40
(UTC-04:00)

DOVE 4 - Pass Details

Date: 18 March 2018
Orbit: 589 x 803 km, 97.7° (Epoch: 18 June)

Event Time Altitude Azimuth Distance (km) Brightness Sun altitude
Rises 05:24:28 0° 22° (NNE) 3,255 ? -27.2°
Reaches altitude 10° 05:27:03 10° 32° (NNE) 2,297 ? -26.7°
Maximum altitude 05:31:37 33° 96° (E) 1,212 ? -25.9°
Drops below altitude 10° 05:35:55 10° 160° (SSE) 2,167 ? -25.0°
Sets 05:38:17 0° 170° (S) 3,044 ? -24.6°
Enters shadow 05:38:27 -1° 171° (S) 3,107 ? -24.5°
